Location: Unspecified
(49.2170°N, 0.0000°E)
Time: 01:47:12
(UTC+00:00)

Transit 2A - Pass Details

Date: 20 June 2019
Orbit: 595 x 964 km, 66.7° (Epoch: 22 July)

Event Time Altitude Azimuth Distance (km) Brightness Sun altitude
Rises 10:16:24 0° 318° (NW) 3,458 9.1 57.0°
Reaches altitude 10° 10:19:13 10° 309° (NW) 2,456 8.4 57.3°
Maximum altitude 10:24:05 31° 250° (WSW) 1,355 7.5 57.9°
Drops below altitude 10° 10:28:31 10° 189° (S) 2,222 8.8 58.4°
Sets 10:30:58 0° 179° (S) 3,078 9.5 58.7°
